x

9439040 - Astoria, Or (asto3) Weather Station

12:30 - Thu 24th Jul 2014 All times are PDT. -7 hours from GMT.

  • Wind
    6mph, 13mph gusts
  • Sea Temp 69°f
  • Air Temp 62°f
  • Sea Pressure 1025.7mb
  • 9439040 - Astoria, Or
  • 9439040 - Astoria, Or

More Historic Weather Station data

Upgrade to MSW Pro to gain access to the past 30 days of data for over 8000 Wavebouys and Weather Stations around the globe.

Join Pro

Comparision Forecast

View Surf forecast
   
jeu. 07/24 12:30 6 13 mph 1025.7mb 69f 62f
12:24 10 14 mph 1025.6mb 69f 61f
12:18 13 14 mph 1025.6mb 69f 61f
12:12 1 9 mph 1025.5mb 69f 63f
12:06 1 10 mph 1025.4mb 69f 63f
12:00 3 7 mph 1025.4mb 69f 62f
11:54 2 7 mph 1025.4mb 69f 62f
11:48 2 9 mph 1025.3mb 69f 62f
11:42 2 8 mph 1025.3mb 69f 62f
11:36 1 6 mph 1025.3mb 69f 62f
11:30  -  5 mph 1025.3mb 69f 62f
11:24 2 8 mph 1025.3mb 69f 62f
11:18 3 10 mph 1025.2mb 69f 62f
11:12 2 6 mph 1025.2mb 69f 62f
11:06 2 6 mph 1025.1mb 69f 63f
11:00  -  5 mph 1025mb 69f 63f
10:54 1 6 mph 1024.9mb 69f 63f
10:48 2 8 mph 1024.9mb 69f 63f
10:42 1 6 mph 1024.8mb 69f 63f
10:36 1 9 mph 1024.7mb 69f 63f
10:30 6 10 mph 1024.6mb 69f 63f
10:24 1 3 mph 1024.6mb 69f 64f
10:18 1 5 mph 1024.5mb 69f 64f
10:12 1 6 mph 1024.5mb 69f 64f
10:06 1 5 mph 1024.4mb 69f 64f
10:00 2 5 mph 1024.3mb 69f 63f
9:54 2 6 mph 1024.3mb 69f 63f
9:48 5 8 mph 1024.3mb - 62f
9:42 5 11 mph 1024.2mb - 62f
9:36 6 13 mph 1024mb - 62f
9:30 3 10 mph 1024mb 69f 62f
9:24 5 14 mph 1023.9mb 69f 61f
9:18 6 11 mph 1023.8mb 69f 61f
9:12 6 15 mph 1023.8mb 69f 61f
9:06 7 10 mph 1023.8mb 69f 61f
9:00 6 10 mph 1023.6mb 68f 62f
8:54 5 10 mph 1023.6mb 68f 62f
8:48 6 14 mph 1023.5mb 68f 61f
8:42 8 16 mph 1023.4mb 68f 61f
8:36 6 10 mph 1023.3mb 68f 61f
8:30 2 8 mph 1023.2mb 68f 61f
8:24 1 6 mph 1023.1mb 68f 62f
8:18 2 10 mph 1022.9mb 68f 62f
8:12 6 11 mph 1022.8mb 68f 61f
8:06 5 13 mph 1022.7mb 68f 61f
8:00 7 10 mph 1022.6mb 68f 61f
7:54 7 10 mph 1022.5mb 68f 61f
7:48 5 13 mph 1022.4mb 67f 61f
7:42 10 13 mph 1022.1mb 67f 60f
7:36 8 11 mph 1022.1mb 67f 60f
7:30 8 11 mph 1022mb 67f 59f
7:24 9 10 mph 1021.9mb 67f 59f
7:18 6 10 mph 1021.9mb 67f 59f
7:12 7 10 mph 1021.8mb 67f 59f
7:06 7 10 mph 1021.7mb 67f 59f
7:00 7 9 mph 1021.5mb 67f 59f
6:54 5 10 mph 1021.4mb 67f 59f
6:48 8 14 mph 1021.4mb 67f 58f
6:42 11 15 mph 1021.3mb 67f 59f
6:36 11 15 mph 1021.2mb 67f 59f
6:30 9 15 mph 1021.1mb 67f 58f
6:24 8 13 mph 1021mb 67f 58f
6:18 8 14 mph 1021mb 67f 58f
6:12 9 13 mph 1020.9mb 67f 58f
6:06 7 10 mph 1020.8mb 67f 59f
6:00 8 14 mph 1020.7mb 67f 58f
5:54 9 16 mph 1020.6mb 67f 59f
5:48 10 14 mph 1020.6mb 67f 59f
5:42 8 10 mph 1020.4mb 67f 59f
5:36 9 14 mph 1020.4mb 67f 60f
5:30 10 14 mph 1020.4mb 67f 60f
5:24 10 14 mph 1020.4mb 67f 60f
5:18 13 14 mph 1020.3mb 67f 60f
5:12 11 16 mph 1020.2mb 67f 60f
5:06 11 17 mph 1020.1mb 67f 60f
5:00 10 15 mph 1020mb 67f 61f
4:54 9 15 mph 1020mb 68f 61f
4:48 13 18 mph 1019.8mb 67f 60f
4:42 13 18 mph 1019.8mb 67f 60f
4:36 14 21 mph 1019.6mb 67f 60f
4:30 11 17 mph 1019.5mb 68f 60f
4:24 11 15 mph 1019.5mb 67f 59f
4:18 8 11 mph 1019.4mb 67f 59f
4:12 8 13 mph 1019.3mb 67f 60f
4:06 8 13 mph 1019.2mb 67f 60f
4:00 9 17 mph 1019.1mb 67f 60f
3:54 10 16 mph 1019.1mb 67f 60f
3:48 9 15 mph 1019.1mb 67f 59f
3:42 14 20 mph 1019.1mb 67f 59f
3:36 16 23 mph 1019mb 66f 60f
3:30 15 18 mph 1018.9mb 67f 59f
3:24 11 28 mph 1019mb 67f 59f
3:18 11 15 mph 1018.9mb 67f 59f
3:12 13 20 mph 1018.9mb 67f 59f
3:06 9 15 mph 1018.9mb 66f 58f
3:00 9 14 mph 1018.8mb 66f 58f
2:54 9 14 mph 1018.7mb 66f 58f
2:48 10 13 mph 1018.5mb 66f 57f
2:42 10 15 mph 1018.6mb 67f 58f
2:36 11 16 mph 1018.6mb 67f 57f
2:30 11 17 mph 1018.7mb 67f 57f
2:24 11 15 mph 1018.7mb 67f 57f
2:18 11 16 mph 1018.8mb 67f 57f
2:12 11 17 mph 1018.9mb 67f 57f
2:06 11 16 mph 1018.8mb 67f 57f
2:00 11 16 mph 1018.8mb 68f 57f
1:54 9 13 mph 1018.9mb 68f 56f
1:48 13 15 mph 1018.9mb 68f 56f
1:42 11 20 mph 1018.8mb 68f 57f
1:36 11 17 mph 1019mb 69f 57f
1:30 16 26 mph 1018.9mb 68f 57f
1:24 14 18 mph 1019.1mb 68f 57f
1:18 13 20 mph 1019.1mb 68f 57f
1:12 17 24 mph 1019mb 68f 57f
1:06 14 21 mph 1018.9mb 68f 58f
1:00 14 18 mph 1018.9mb 68f 57f
12:54 11 15 mph 1018.9mb 68f 57f
12:48 11 21 mph 1019mb 67f 57f
12:42 10 20 mph 1019mb 67f 57f
12:36 13 17 mph 1018.9mb 67f 57f
12:30 14 17 mph 1018.8mb 67f 57f
12:24 11 16 mph 1018.8mb 68f 57f
12:18 11 15 mph 1018.9mb 69f 57f
12:12 11 15 mph 1019mb 69f 57f
12:06 14 20 mph 1019mb 69f 57f
12:00 13 18 mph 1019.1mb 69f 57f
mer. 07/23 11:54 10 18 mph 1019.2mb 69f 57f
11:48 13 16 mph 1019.3mb 69f 57f
11:42 14 18 mph 1019.2mb 69f 57f
11:36 13 17 mph 1019.2mb 69f 57f
11:30 13 16 mph 1019.2mb 69f 57f
11:24 11 16 mph 1019.4mb 69f 57f
11:18 10 22 mph 1019.4mb 69f 57f
11:12 10 16 mph 1019.3mb 69f 58f
11:06 10 21 mph 1019.3mb 69f 57f
11:00 16 21 mph 1019.2mb 69f 58f
10:54 13 28 mph 1019.3mb 69f 57f
10:48 18 24 mph 1019.3mb 69f 57f
10:42 17 23 mph 1019.3mb 69f 57f
10:36 16 26 mph 1019.4mb 69f 58f
10:30 10 14 mph 1019.5mb 69f 58f
10:24 14 18 mph 1019.3mb 69f 59f
10:18 7 13 mph 1019.2mb 69f 58f
10:12 6 13 mph 1019.1mb 69f 58f
10:06 11 18 mph 1019.2mb 69f 58f
10:00 9 16 mph 1019.1mb 69f 59f
9:54 9 14 mph 1019.1mb 69f 59f
9:48 9 11 mph 1019.3mb 69f 59f
9:42 8 14 mph 1019.3mb 69f 59f
9:36 9 13 mph 1019.3mb 69f 59f
9:30 7 10 mph 1019.3mb 69f 59f
9:24 8 13 mph 1019.2mb 69f 59f
9:18 8 14 mph 1019.1mb 69f -
9:12 11 20 mph 1019.1mb 69f -
9:06 9 13 mph 1019mb 69f -
9:00 8 16 mph 1018.9mb 69f 59f
8:54 8 14 mph 1018.9mb 69f 58f
8:48 8 14 mph 1019mb 69f 58f
8:42 10 15 mph 1019mb 69f 58f
8:36 9 14 mph 1019mb 69f 59f
8:30 9 14 mph 1019mb 69f 58f
8:24 11 15 mph 1018.9mb 69f 58f
8:18 9 16 mph 1018.9mb 69f 58f
8:12 10 13 mph 1019mb 69f 59f
8:06 9 13 mph 1019.1mb 69f 59f
8:00 10 15 mph 1019.1mb 69f 59f
7:54 9 10 mph 1019.1mb 69f 59f
7:48 9 14 mph 1019mb 69f 59f
7:42 10 14 mph 1018.9mb 69f 59f
7:36 10 16 mph 1018.9mb 69f 59f
7:30 15 20 mph 1018.9mb 68f 60f
7:24 14 17 mph 1018.9mb 68f 60f
7:18 13 17 mph 1019mb 68f 59f
7:12 13 18 mph 1019.2mb 69f 59f
7:06 9 14 mph 1019.2mb 69f 60f
7:00 13 18 mph 1019.2mb 69f 60f
6:54 14 24 mph 1019.2mb 69f 60f
6:48 10 16 mph 1019.3mb 69f 60f
6:42 8 13 mph 1019.3mb 69f 61f
6:36 8 13 mph 1019.3mb 69f 61f
6:30 8 11 mph 1019.4mb 69f 60f
6:24 8 11 mph 1019.5mb 69f 60f
6:18 8 14 mph 1019.5mb 69f 60f
6:12 9 15 mph 1019.5mb 69f 60f
6:06 10 14 mph 1019.6mb 69f 60f
6:00 10 14 mph 1019.6mb 69f 60f
5:54 9 14 mph 1019.5mb 69f 61f
5:48 11 15 mph 1019.5mb 69f 60f
5:42 10 15 mph 1019.6mb 69f 61f
5:36 10 13 mph 1019.6mb 69f 60f
5:30 10 15 mph 1019.7mb 69f 60f
5:24 9 16 mph 1019.7mb 69f 60f
5:18 7 14 mph 1019.7mb 69f 60f
5:12 9 13 mph 1019.8mb 69f 59f
5:06 11 15 mph 1020mb 69f 59f
5:00 13 18 mph 1020.1mb 69f 60f
4:54 17 21 mph 1019.9mb 69f 59f
4:48 15 26 mph 1019.9mb 69f 60f
4:42 23 32 mph 1019.9mb 69f 60f
4:36 15 25 mph 1019.6mb 69f 63f
4:30 14 20 mph 1019.5mb 69f 64f
4:24 13 20 mph 1019.5mb 69f 64f
4:18 15 22 mph 1019.6mb 69f 64f
4:12 17 22 mph 1019.6mb 69f 64f
4:06 16 25 mph 1019.5mb 69f 64f
4:00 14 18 mph 1019.6mb 69f 64f
3:54 10 22 mph 1019.6mb 69f 64f
3:48 15 23 mph 1019.6mb 69f 64f
3:42 18 24 mph 1019.6mb 69f 64f
3:36 14 18 mph 1019.6mb 69f 64f
3:30 14 21 mph 1019.6mb 68f 64f
3:24 13 17 mph 1019.5mb 68f 64f
3:18 11 20 mph 1019.6mb 67f 64f
3:12 16 21 mph 1019.5mb 66f 63f
3:06 13 16 mph 1019.5mb 67f 64f
3:00 13 18 mph 1019.6mb 68f 63f
2:54 14 20 mph 1019.5mb 68f 64f
2:48 14 22 mph 1019.5mb 67f 64f
2:42 13 21 mph 1019.4mb 68f 63f
2:36 14 22 mph 1019.4mb 69f 63f
2:30 11 16 mph 1019.3mb 69f 63f
2:24 13 20 mph 1019.2mb 69f 63f
2:18 13 18 mph 1019.2mb 69f 63f
2:12 15 18 mph 1019.1mb 69f 62f
2:06 13 17 mph 1019.2mb 69f 63f
2:00 13 17 mph 1019.1mb 69f 63f
1:54 11 16 mph 1019.1mb 69f 63f
1:48 10 15 mph 1019.1mb 69f 63f
1:42 10 14 mph 1019.1mb 69f 63f
1:36 10 15 mph 1019.1mb 69f 63f
1:30 9 15 mph 1019mb 69f 63f
1:24 10 18 mph 1018.9mb 69f 63f
1:18 14 18 mph 1018.8mb 69f 62f
1:12 10 15 mph 1018.7mb 69f 62f
1:06 7 15 mph 1018.6mb 69f 62f
1:00 8 13 mph 1018.6mb 69f 61f
12:54 9 11 mph 1018.6mb 69f 61f
12:48 8 14 mph 1018.6mb 70f 61f
12:42 9 11 mph 1018.6mb 70f 60f
12:36 10 14 mph 1018.5mb 70f 60f
12:30 9 14 mph 1018.5mb 70f 60f
12:24 9 13 mph 1018.5mb 70f 60f
12:18 7 10 mph 1018.5mb 70f 60f
12:12 9 14 mph 1018.3mb 70f 60f
12:06 9 14 mph 1018.3mb 70f 60f
12:00 11 14 mph 1018.4mb 70f 60f
11:54 6 13 mph 1018mb 70f 60f
11:48 8 14 mph 1018.1mb 70f 60f
11:42 8 13 mph 1018mb 70f 60f
11:36 9 14 mph 1018.3mb 70f 60f
11:30 11 14 mph 1018.4mb 70f 60f
11:24 10 13 mph 1018.1mb 70f 60f
11:18 9 11 mph 1018mb 70f 60f
11:12 11 15 mph 1018.1mb 70f 60f
11:06 11 15 mph 1018mb 70f 60f
11:00 7 10 mph 1017.9mb 70f 60f
10:54 6 13 mph 1017.9mb 70f 60f
10:48 9 13 mph 1017.9mb 70f 60f
10:42 10 13 mph 1017.9mb 70f 60f
10:36 8 13 mph 1017.8mb 70f 60f
10:30 9 14 mph 1017.7mb 70f 60f
10:24 7 11 mph 1017.5mb 70f 60f
10:18 9 13 mph 1017.4mb 70f 60f
10:12 7 10 mph 1017.3mb 70f 60f
10:06 9 11 mph 1017.2mb 70f 60f
10:00 7 10 mph 1017.4mb 70f 60f
9:54 8 15 mph 1017.5mb 70f 60f
9:48 9 13 mph 1017.6mb 70f 60f
9:42 10 14 mph 1017.5mb 70f 60f
9:36 8 14 mph 1017.1mb 70f 60f
9:30 11 15 mph 1017.1mb 70f 60f
9:24 9 13 mph 1017.2mb 70f 60f
9:18 9 14 mph 1017.3mb 69f 60f
9:12 10 15 mph 1017.3mb 69f 60f
9:06 8 13 mph 1017.5mb 69f 60f
9:00 10 14 mph 1017.5mb 69f 60f
8:54 8 11 mph 1017.4mb 69f 60f
8:48 9 11 mph 1017.4mb 69f 59f
8:42 8 13 mph 1017.3mb 69f 59f
8:36 8 11 mph 1017.3mb 69f 59f
8:30 8 11 mph 1017.2mb 69f 59f
8:24 9 11 mph 1017.2mb 69f 59f
8:18 7 13 mph 1017.3mb 69f 59f
8:12 8 11 mph 1017.4mb 69f 59f
8:06 10 13 mph 1017.3mb 69f 59f
8:00 8 13 mph 1017.3mb 69f 59f
7:54 10 14 mph 1017.3mb 69f 59f
7:48 10 14 mph 1017.3mb 69f 59f
7:42 8 14 mph 1017.2mb 69f 59f
7:36 8 10 mph 1017.1mb 69f 60f
7:30 6 8 mph 1017mb 69f 59f
7:24 6 9 mph 1016.9mb 69f 60f
7:18 5 7 mph 1016.9mb 69f 59f
7:12 5 7 mph 1016.8mb 69f 59f
7:06 3 6 mph 1016.8mb 69f 59f
7:00 3 6 mph 1016.8mb 69f 59f
6:54 3 5 mph 1016.7mb 69f 59f
6:48 2 6 mph 1016.6mb 69f 59f
6:42 5 6 mph 1016.6mb 69f 59f
6:36 5 6 mph 1016.5mb 69f 59f
6:30 5 6 mph 1016.4mb 69f 59f
6:24 5 7 mph 1016.4mb 69f 59f
6:18 5 7 mph 1016.4mb 69f 59f
6:12 5 7 mph 1016.4mb 69f 59f
6:06 5 7 mph 1016.3mb 69f 59f
6:00 3 6 mph 1016.1mb 69f 59f
5:54 2 6 mph 1016mb 69f 59f
5:48 3 6 mph 1016.1mb 69f 59f
5:42 5 7 mph 1016.2mb 69f 59f
5:36 3 7 mph 1016.2mb 69f 59f
5:30 1 5 mph 1016.2mb 69f 59f
5:24 2 5 mph 1016.2mb 69f 59f
5:18 3 5 mph 1016.2mb 69f 59f
5:12 1 6 mph 1016.2mb 69f 59f
5:06 2 5 mph 1016.2mb 69f 58f
5:00 1 3 mph 1016.1mb 69f 59f
4:54 2 3 mph 1016mb 69f 58f
4:48 1 3 mph 1016.2mb 69f 59f
4:42 1 2 mph 1016.4mb 69f 59f
4:36 1 5 mph 1016.4mb 69f 58f
4:30 3 6 mph 1016.2mb 69f 59f
4:24 5 7 mph 1016.4mb 69f 59f
4:18 1 3 mph 1016.2mb 69f 59f
4:12 2 3 mph 1016.2mb 69f 58f
4:06 2 5 mph 1016.1mb 69f 59f
4:00 2 3 mph 1016.2mb 69f 59f
3:54 3 5 mph 1016.4mb 69f 59f
3:48 2 3 mph 1016.4mb 69f 59f
3:42 2 5 mph 1016.4mb 69f 59f
3:36 3 5 mph 1016.4mb 69f 59f
3:30 2 5 mph 1016.3mb 69f 59f
3:24 3 6 mph 1016.3mb 68f 59f
3:18 5 6 mph 1016.4mb 68f 60f
3:12 3 5 mph 1016.3mb 68f 60f
3:06 3 6 mph 1016.3mb 68f 60f
3:00 5 7 mph 1016.4mb 68f 60f
2:54 5 7 mph 1016.4mb 68f 61f
2:48 3 7 mph 1016.5mb 68f 61f
2:42 6 9 mph 1016.6mb 68f 61f
2:36 6 8 mph 1016.9mb 68f 61f
2:30 5 6 mph 1016.9mb 68f 61f
2:24 6 8 mph 1016.9mb 68f 61f
2:18 3 6 mph 1016.9mb 68f 62f
2:12 2 5 mph 1016.9mb 68f 61f
2:06 5 9 mph 1016.9mb 68f 61f
2:00 6 8 mph 1017.1mb 68f 62f
1:54 3 6 mph 1016.8mb 68f 62f
1:48 1 3 mph 1016.8mb 68f 62f
1:42 1 5 mph 1016.8mb 68f 62f
1:36 5 8 mph 1017mb 68f 62f
1:30 5 7 mph 1017.1mb 68f 62f
1:24 2 5 mph 1017.1mb 69f 62f
1:18 3 7 mph 1017.1mb 69f 62f
1:12 5 7 mph 1017.2mb 69f 62f
1:06 6 7 mph 1017.1mb 69f 62f
1:00 6 7 mph 1017.2mb 69f 62f
12:54 3 6 mph 1017.1mb 69f 62f
12:48 5 6 mph 1017.1mb 69f 62f
12:42 5 6 mph 1017.2mb 69f 62f
12:36 6 7 mph 1017.2mb 69f 63f
12:30 2 6 mph 1017mb 69f 63f
12:24 2 3 mph 1017mb 69f 63f
12:18 3 5 mph 1017.2mb 69f 62f
12:12 5 6 mph 1017.3mb 69f 63f
12:06 3 6 mph 1017.3mb 69f 63f
12:00 5 7 mph 1017.2mb 69f 63f
mar. 07/22 11:54 2 7 mph 1017.2mb 69f 63f
11:48 1 7 mph 1017.2mb 69f 64f
11:42 2 6 mph 1017.2mb 69f 64f
11:36 3 7 mph 1017.2mb 69f 63f
11:30 5 8 mph 1017.3mb 69f 63f
11:24 2 6 mph 1017.3mb 69f 63f
11:18 3 6 mph 1017.3mb 69f 63f
11:12 3 7 mph 1017.4mb 69f 63f
11:06 5 9 mph 1017.4mb 70f 63f
11:00 5 7 mph 1017.5mb 70f 63f
10:54 3 7 mph 1017.5mb 70f 63f
10:48 6 7 mph 1017.5mb 70f 63f
10:42 3 9 mph 1017.5mb 70f 63f
10:36 5 10 mph 1017.4mb 70f 63f
10:30 8 10 mph 1017.4mb 70f 63f
10:24 7 13 mph 1017.3mb 70f 64f
10:18 7 11 mph 1017.3mb 70f 64f
10:12 6 10 mph 1017.3mb 70f 64f
10:06 2 8 mph 1017.2mb 70f 64f
10:00 6 9 mph 1017.4mb 70f 63f
9:54 8 10 mph 1017.4mb 71f 64f
9:48 7 10 mph 1017.4mb 71f 64f
9:42 8 11 mph 1017.4mb 71f 64f
9:36 7 9 mph 1017.3mb 71f 64f
9:30 6 10 mph 1017.4mb 71f 64f
9:24 7 9 mph 1017.4mb 71f 64f
9:18 6 10 mph 1017.3mb 71f 65f
9:12 8 11 mph 1017.4mb 71f 65f
9:06 6 10 mph 1017.3mb 71f 65f
9:00 5 7 mph 1017.1mb 71f 65f
8:54 2 7 mph 1016.9mb 71f 65f
8:48 6 9 mph 1016.9mb 71f 65f
8:42 6 9 mph 1017mb 71f 65f
8:36 6 10 mph 1017mb 71f 65f
8:30 3 10 mph 1016.9mb 71f 65f
8:24 6 9 mph 1016.7mb 71f 66f
8:18 5 10 mph 1016.9mb 71f 66f
8:12 5 11 mph 1017.1mb 71f 66f
8:06 6 13 mph 1017.1mb 71f 66f
8:00 6 10 mph 1017.1mb 71f 66f
7:54 3 11 mph 1017.1mb 71f 66f
7:48 2 9 mph 1017mb 71f 66f
7:42 3 8 mph 1017mb 70f 67f
7:36 2 8 mph 1016.9mb 70f 67f
7:30 2 6 mph 1016.8mb 70f 67f
7:24 2 6 mph 1016.8mb 70f 68f
7:18 2 6 mph 1016.8mb 70f 68f
7:12 1 5 mph 1016.8mb 70f 68f
7:06 1 7 mph 1016.8mb 70f 68f
7:00 1 5 mph 1016.9mb 70f 69f
6:54 2 5 mph 1016.9mb 70f 69f
6:48 2 5 mph 1016.9mb 70f 69f
6:42 3 8 mph 1016.9mb 71f 69f
6:36 1 5 mph 1017mb 70f 69f
6:30 1 6 mph 1017mb 70f 69f
6:24 1 7 mph 1017mb 70f 69f
6:18 1 7 mph 1017mb 70f 69f
6:12 2 9 mph 1017mb 70f 69f
6:06 3 6 mph 1017.1mb 70f 69f
6:00 2 7 mph 1017.1mb 70f 69f
5:54 2 9 mph 1017.2mb 70f 69f
5:48 2 8 mph 1017.3mb 70f 69f
5:42 1 6 mph 1017.3mb 70f 69f
5:36 2 5 mph 1017.3mb 71f 69f
5:30 2 6 mph 1017.4mb 71f 69f
5:24 2 7 mph 1017.4mb 71f 69f
5:18  -  6 mph 1017.5mb 71f 70f
5:12 1 6 mph 1017.6mb 71f 69f
5:06 2 7 mph 1017.6mb 71f 69f
5:00 2 7 mph 1017.7mb 71f 69f
4:54 2 8 mph 1017.8mb 71f 69f
4:48 1 8 mph 1017.8mb 71f 69f
4:42 2 6 mph 1017.9mb 71f 69f
4:36 2 5 mph 1017.9mb 71f 69f
4:30 2 7 mph 1018mb 71f 68f
4:24 2 8 mph 1018mb 71f 68f
4:18 2 6 mph 1018.1mb 71f 69f
4:12 2 6 mph 1018.1mb 71f 68f
4:06 2 6 mph 1018.1mb 71f 69f
4:00 2 3 mph 1018.2mb 71f 69f
3:54 2 6 mph 1018.2mb 70f 69f
3:48 2 6 mph 1018.2mb 69f 69f
3:42 1 3 mph 1018.3mb 69f 69f
3:36 2 9 mph 1018.3mb 69f 69f
3:30 2 7 mph 1018.4mb 69f 69f
3:24 1 6 mph 1018.4mb 69f 69f
3:18 2 8 mph 1018.4mb 69f 69f
3:12 2 7 mph 1018.4mb 69f 68f
3:06 2 7 mph 1018.4mb 69f 69f
3:00 1 5 mph 1018.4mb 69f 70f
2:54 1 3 mph 1018.4mb 69f 70f
2:48 1 5 mph 1018.4mb 69f 70f
2:42 2 5 mph 1018.4mb 69f 69f
2:36 2 6 mph 1018.5mb 69f 69f
2:30 2 6 mph 1018.5mb 69f 68f
2:24 5 6 mph 1018.5mb 69f 67f
2:18 3 5 mph 1018.6mb 69f 68f
2:12 2 6 mph 1018.7mb 69f 67f
2:06 2 5 mph 1018.7mb 69f 68f
2:00 2 3 mph 1018.6mb 69f 67f
1:54 2 3 mph 1018.6mb 68f 67f
1:48 2 5 mph 1018.6mb 68f 67f
1:42 3 5 mph 1018.6mb 68f 67f
1:36 2 3 mph 1018.7mb 68f 67f
1:30 3 5 mph 1018.7mb 68f 66f
1:24 3 5 mph 1018.6mb 68f 66f
1:18 3
mph
1018.5mb 70f 66f
1:12 3 5 mph 1018.5mb 70f 66f
1:06 3
mph
1018.5mb 69f 66f
1:00 3
mph
1018.5mb 69f 65f
12:54 3 5 mph 1018.5mb 69f 65f
12:48 2 3 mph 1018.5mb 70f 65f
12:42 2 5 mph 1018.5mb 70f 65f
12:36 3 5 mph 1018.5mb 70f 65f
12:30 3 6 mph 1018.6mb 70f 64f
12:24 3 6 mph 1018.6mb 70f 64f
12:18 5 6 mph 1018.6mb 70f 63f
12:12 6 7 mph 1018.6mb 70f 63f
12:06 6 7 mph 1018.6mb 70f 63f
12:00 6 8 mph 1018.6mb 70f 63f
11:54 6 7 mph 1018.6mb 70f 63f
11:48 6 7 mph 1018.6mb 70f 63f
11:42 6 7 mph 1018.6mb 70f 63f
11:36 6 7 mph 1018.6mb 70f 63f
11:30 6 8 mph 1018.6mb 70f 63f
11:24 6 7 mph 1018.6mb 70f 63f
11:18 6 7 mph 1018.6mb 70f 63f
11:12 5 6 mph 1018.6mb 70f 63f
11:06 6 7 mph 1018.6mb 70f 63f
11:00 3 6 mph 1018.6mb 70f 63f
10:54 3 5 mph 1018.6mb 70f 63f
10:48 2 6 mph 1018.6mb 70f 63f
10:42 1 5 mph 1018.6mb 70f 63f
10:36 1 3 mph 1018.6mb 70f 63f
10:30 1 3 mph 1018.5mb 70f 63f
10:24 3 6 mph 1018.5mb 70f 62f
10:18 3 5 mph 1018.5mb 70f 62f
10:12 3 6 mph 1018.5mb 70f 62f
10:06 2 5 mph 1018.5mb 70f 62f
10:00 2 6 mph 1018.5mb 70f 61f
9:54 5 6 mph 1018.5mb 70f 61f
9:48 3 5 mph 1018.4mb 70f 61f
9:42 2 3 mph 1018.4mb 70f 61f
9:36 1 2 mph 1018.4mb 70f 61f
9:30 1 2 mph 1018.4mb 70f 61f
9:24  -  2 mph 1018.4mb 70f 61f
9:18 1 2 mph 1018.5mb 70f 61f
9:12  -  2 mph 1018.4mb 70f 61f
9:06  -  1 mph 1018.4mb 70f 61f
9:00 1 2 mph 1018.5mb 70f 60f
8:54 2 3 mph 1018.5mb 69f 60f
8:48  -  2 mph 1018.5mb 69f 60f
8:42 1 2 mph 1018.4mb 69f 60f
8:36 1 3 mph 1018.4mb 69f 60f
8:30 2 3 mph 1018.4mb 69f 60f
8:24 3
mph
1018.3mb 69f 60f
8:18 2 5 mph 1018.3mb 69f 59f
8:12 5 6 mph 1018.2mb 69f 59f
8:06 2 6 mph 1018.2mb 69f 59f
8:00 6
mph
1018.1mb 69f 59f
7:54 3 6 mph 1018mb 69f 59f
7:48 6 7 mph 1018mb 69f 59f
7:42 3 6 mph 1018mb 69f 59f
7:36 2 5 mph 1018mb 69f 59f
7:30 3 5 mph 1017.9mb 69f 59f
7:24 2 5 mph 1017.9mb 69f 59f
7:18 1 2 mph 1017.8mb 69f 59f
7:12 2 3 mph 1017.8mb 69f 59f
7:06 2 3 mph 1017.8mb 69f 59f
7:00 2 5 mph 1017.7mb 69f 59f
6:54 5
mph
1017.8mb 69f 59f
6:48 2 3 mph 1017.7mb 69f 59f
6:42 2 3 mph 1017.7mb 68f 59f
6:36 3
mph
1017.7mb 68f 58f
6:30 3 5 mph 1017.7mb 68f 58f
6:24 2 3 mph 1017.7mb 68f 58f
6:18 3
mph
1017.6mb 68f 58f
6:12 2 3 mph 1017.6mb 69f 58f
6:06 3 6 mph 1017.6mb 69f 58f
6:00 2 3 mph 1017.6mb 69f 58f
5:54 2 5 mph 1017.7mb 69f 59f
5:48 3 5 mph 1017.6mb 69f 58f
5:42 2 5 mph 1017.6mb 69f 59f
5:36  -  5 mph 1017.7mb 69f 59f
5:30 5 6 mph 1017.7mb 69f 59f
5:24 5 6 mph 1017.7mb 69f 59f
5:18 2 5 mph 1017.7mb 69f 59f
5:12 3 5 mph 1017.7mb 69f 59f
5:06 2 3 mph 1017.7mb 69f 59f
5:00 3 5 mph 1017.7mb 69f 59f
4:54 3 5 mph 1017.7mb 69f 59f
4:48 5
mph
1017.7mb 69f 59f
4:42 2 3 mph 1017.8mb 69f 59f
4:36 2 3 mph 1017.8mb 69f 59f
4:30 2
mph
1017.7mb 69f 59f
4:24 1 2 mph 1017.7mb 69f 59f
4:18 1 2 mph 1017.7mb 69f 59f
4:12 1 3 mph 1017.8mb 69f 59f
4:06 2 3 mph 1017.7mb 69f 59f
4:00 2 3 mph 1017.7mb 69f 59f
3:54  -  2 mph 1017.7mb 69f 60f
3:48  -  1 mph 1017.7mb 69f 59f
3:42 1 2 mph 1017.7mb 69f 59f
3:36 1
mph
1017.7mb 69f 59f
3:30 1 2 mph 1017.7mb 69f 59f
3:24 2
mph
1017.7mb 69f 59f
3:18 2
mph
1017.6mb 69f 59f
3:12 1 2 mph 1017.6mb 69f 59f
3:06 1 2 mph 1017.6mb 69f 59f
3:00 1 2 mph 1017.6mb 69f 59f
2:54 1 2 mph 1017.6mb 69f 59f
2:48 1
mph
1017.6mb 69f 59f
2:42 1 2 mph 1017.6mb 69f 59f
2:36 1
mph
1017.6mb 69f 59f
2:30 1 2 mph 1017.6mb 68f 59f
2:24 2 3 mph 1017.6mb 68f 59f
2:18 2
mph
1017.6mb 68f 59f
2:12 2 3 mph 1017.6mb 68f 59f
2:06 2
mph
1017.7mb 68f 59f
2:00 2 3 mph 1017.6mb 68f 59f
1:54 2 3 mph 1017.6mb 68f 58f
1:48 2 5 mph 1017.6mb 68f 58f
1:42 2 5 mph 1017.6mb 68f 58f
1:36 3 5 mph 1017.6mb 68f 58f
1:30 3 5 mph 1017.6mb 68f 58f
1:24 5 6 mph 1017.5mb 68f 58f
1:18 3 5 mph 1017.5mb 68f 58f
1:12 3 5 mph 1017.5mb 68f 58f
1:06 3 5 mph 1017.6mb 68f 58f
1:00 5 6 mph 1017.6mb 68f 59f
12:54 5 6 mph 1017.5mb 68f 59f
12:48 5
mph
1017.6mb 68f 59f
12:42 3 5 mph 1017.6mb 68f 59f
12:36 3 5 mph 1017.5mb 68f 59f
12:30 5
mph
1017.6mb 69f 59f
12:24 5 6 mph 1017.5mb 69f 59f
12:18 2 6 mph 1017.5mb 69f 60f
12:12 3 6 mph 1017.5mb 69f 61f
12:06 7 9 mph 1017.5mb 69f 62f
12:00 9 10 mph 1017.4mb 69f 61f
lun. 07/21 11:54 7 9 mph 1017.4mb 69f 61f
11:48 8 11 mph 1017.4mb 68f 61f
11:42 10 11 mph 1017.3mb 67f 61f
11:36 10 11 mph 1017.3mb 69f 61f
11:30 10 13 mph 1017.2mb 69f 61f
11:24 10 13 mph 1017.2mb 69f 61f
11:18 9 13 mph 1017.2mb 69f 62f
11:12 10 15 mph 1017.3mb 69f 61f
11:06 11 15 mph 1017.3mb 69f 61f
11:00 9 13 mph 1017.2mb 69f 61f
10:54 10 11 mph 1017.2mb 69f 62f
10:48 10 13 mph 1017.2mb 69f 61f
10:42 10 13 mph 1017.2mb 68f 62f
10:36 10 13 mph 1017.3mb 68f 61f
10:30 10 11 mph 1017.3mb 68f 62f
10:24 7 11 mph 1017.3mb 68f 62f
10:18 10 13 mph 1017.3mb 69f 62f
10:12 11 15 mph 1017.3mb 69f 62f
10:06 13 15 mph 1017.2mb 69f 62f
10:00 13 15 mph 1017.3mb 69f 62f
9:54 10 13 mph 1017.2mb 70f 62f
9:48 11 14 mph 1017.3mb 70f 62f
9:42 10 13 mph 1017.3mb 70f 63f
9:36 10 13 mph 1017.2mb 70f 63f
9:30 10 13 mph 1017.1mb 70f 63f
9:24 9 10 mph 1017mb 71f 63f
9:18 8 10 mph 1017mb 71f 63f
9:12 7 9 mph 1016.9mb 71f 64f
9:06 8 10 mph 1016.8mb 71f 64f
9:00 9 11 mph 1016.8mb 71f 64f
8:54 9 11 mph 1016.8mb 71f 64f
8:48 9 10 mph 1016.7mb 71f 64f
8:42 7 8 mph 1016.7mb 71f 65f
8:36 6 8 mph 1016.7mb 71f 65f
8:30 6 8 mph 1016.7mb 71f 65f
8:24 6 8 mph 1016.6mb 71f 66f
8:18 6 8 mph 1016.5mb 71f 66f
8:12 6 8 mph 1016.5mb 71f 66f
8:06 7 8 mph 1016.5mb 71f 66f
8:00 7 8 mph 1016.5mb 71f 66f
7:54 6 9 mph 1016.5mb 71f 67f
7:48 7 9 mph 1016.5mb 71f 66f
7:42 8 11 mph 1016.5mb 71f 66f
7:36 7 9 mph 1016.5mb 71f 67f
7:30 8 10 mph 1016.5mb 71f 67f
7:24 7 9 mph 1016.6mb 71f 67f
7:18 8 10 mph 1016.6mb 71f 67f
7:12 7 9 mph 1016.6mb 71f 67f
7:06 7 9 mph 1016.6mb 71f 67f
7:00 7 10 mph 1016.6mb 71f 67f
6:54 8 10 mph 1016.6mb 71f 67f
6:48 8 9 mph 1016.6mb 70f 67f
6:42 9 11 mph 1016.6mb 70f 67f
6:36 8 11 mph 1016.6mb 70f 68f
6:30 8 11 mph 1016.5mb 71f 68f
6:24 9 13 mph 1016.5mb 71f 68f
6:18 8 11 mph 1016.5mb 71f 68f
6:12 10 14 mph 1016.4mb 71f 68f
6:06 9 10 mph 1016.4mb 71f 68f
6:00 7 9 mph 1016.3mb 71f 69f
5:54 7 11 mph 1016.4mb 71f 68f
5:48 8 10 mph 1016.4mb 70f 68f
5:42 3 6 mph 1016.4mb 70f 70f
5:36  -  6 mph 1016.5mb 70f 71f
5:30 3 7 mph 1016.5mb 70f 70f
5:24 1 2 mph 1016.4mb 71f 71f
5:18 2 5 mph 1016.5mb 71f 70f
5:12 2 5 mph 1016.5mb 70f 70f
5:06 1 7 mph 1016.5mb 70f 70f
5:00 2 9 mph 1016.5mb 69f 69f
4:54 2 8 mph 1016.6mb 69f 69f
4:48 2 8 mph 1016.7mb 69f 69f
4:42 5 10 mph 1016.7mb 69f 69f
4:36 5 10 mph 1016.8mb 70f 68f
4:30 1 10 mph 1016.9mb 71f 70f
4:24 3 8 mph 1016.9mb 71f 69f
4:18 5 8 mph 1016.9mb 71f 69f
4:12 5 8 mph 1017mb 70f 68f
4:06 2 5 mph 1017mb 70f 70f
4:00 3 5 mph 1017.1mb 71f 68f
3:54 3 6 mph 1017.1mb 71f 68f
3:48 5 7 mph 1017.2mb 70f 68f
3:42 5 6 mph 1017.2mb 70f 68f
3:36 6 7 mph 1017.3mb 70f 67f
3:30 5 7 mph 1017.3mb 70f 67f
3:24 5 7 mph 1017.3mb 70f 68f
3:18 6 8 mph 1017.3mb 70f 67f
3:12 6 7 mph 1017.4mb 70f 67f
3:06 6 7 mph 1017.4mb 70f 67f
3:00 6 7 mph 1017.4mb 70f 67f
2:54 6 8 mph 1017.5mb 69f 67f
2:48 3 6 mph 1017.6mb 69f 67f
2:42 6 9 mph 1017.7mb 69f 66f
2:36 6 10 mph 1017.7mb 69f 66f
2:30 2 8 mph 1017.7mb 69f 67f
2:24 1 5 mph 1017.8mb 68f 68f
2:18 6 9 mph 1017.9mb 68f 66f
2:12 2 8 mph 1017.9mb 69f 67f
2:06 3 6 mph 1017.9mb 69f 67f
2:00 2 6 mph 1018mb 70f 67f
1:54 1 5 mph 1017.9mb 69f 67f
1:48 1 5 mph 1018mb 69f 67f
1:42 1 6 mph 1018mb 67f 67f
1:36  -  3 mph 1018.1mb 66f 67f
1:30 2 5 mph 1018.1mb 67f 67f
1:18 1 5 mph 1018.2mb 67f 66f
1:12 1 6 mph 1018.2mb 69f 66f
1:06 2 7 mph 1018.2mb 69f 65f
1:00 3 7 mph 1018.2mb 69f 65f
12:54 3 8 mph 1018.2mb 69f 64f
12:48 3 6 mph 1018.2mb 69f 65f
12:42 2 6 mph 1018.2mb 69f 65f
12:36 5 6 mph 1018.2mb 69f 63f
12:30 3 5 mph 1018.2mb 69f 64f
12:24 2 3 mph 1018.2mb 69f 65f
12:18 2 3 mph 1018.2mb 69f 65f
12:12 2 5 mph 1018.2mb 69f 64f
12:06 3 5 mph 1018.3mb 69f 63f
12:00 2 5 mph 1018.3mb 69f 63f
11:54 2 5 mph 1018.4mb 69f 63f
11:48 3 5 mph 1018.4mb 69f 63f
11:42 5 6 mph 1018.4mb 69f 62f
11:36 5 6 mph 1018.4mb 69f 62f
11:30 5
mph
1018.4mb 69f 62f
11:24 3 5 mph 1018.4mb 69f 62f
11:18 2 5 mph 1018.4mb 69f 63f
11:12 3 6 mph 1018.4mb 69f 62f
11:06 2 5 mph 1018.4mb 69f 62f
11:00 3 5 mph 1018.4mb 69f 62f
10:54 3 5 mph 1018.4mb 69f 62f
10:48 3 6 mph 1018.4mb 69f 62f
10:42 3 6 mph 1018.4mb 70f 62f
10:36 2 5 mph 1018.4mb 70f 62f
10:30 2 3 mph 1018.3mb 70f 62f
10:24  -  3 mph 1018.3mb 69f 63f
10:18 2 5 mph 1018.3mb 69f 62f
10:12 2 3 mph 1018.3mb 69f 62f
10:06 2 3 mph 1018.3mb 69f 62f
10:00 2 3 mph 1018.3mb 69f 61f
9:54 3 5 mph 1018.3mb 69f 61f
9:48 3 5 mph 1018.3mb 69f 60f
9:42 3 6 mph 1018.3mb 69f 60f
9:36 3 6 mph 1018.2mb 69f 60f
9:30 1 5 mph 1018.3mb 69f 61f
9:24  -  6 mph 1018.3mb 69f 61f
9:18  -  5 mph 1018.3mb 69f 60f
9:12 2 5 mph 1018.3mb 69f 61f
9:06 2 5 mph 1018.3mb 69f 60f
9:00 2 5 mph 1018.3mb 69f 60f
8:54 3 6 mph 1018.2mb 69f 60f
8:48 5 6 mph 1018.2mb 69f 60f
8:42 5 6 mph 1018.2mb 69f 59f
8:36 2 5 mph 1018.1mb 69f 59f
8:30 2 6 mph 1018.1mb 69f 59f
8:24 2 5 mph 1018.1mb 69f 59f
8:18 1 6 mph 1018.1mb 69f 59f
8:12 5 6 mph 1018mb 69f 58f
8:06 5 7 mph 1018mb 69f 58f
8:00 6 7 mph 1018.1mb 69f 58f
7:54 3 6 mph 1018.1mb 69f 58f
7:48 2 6 mph 1018.1mb 69f 58f
7:42 1 6 mph 1018.1mb 69f 58f
7:36 2 5 mph 1018mb 69f 58f
7:30  -  3 mph 1018.1mb 69f 58f
7:24  -  1 mph 1018.1mb 69f 58f
7:18  -  2 mph 1018.1mb 68f 58f
7:12  -  3 mph 1018mb 68f 58f
7:06 2 3 mph 1018mb 68f 57f
7:00 2
mph
1018mb 68f 57f
6:54 1 2 mph 1017.9mb 68f 57f
6:48 2 3 mph 1018mb 68f 57f
6:42 2 3 mph 1018mb 68f 57f
6:36 3 5 mph 1017.9mb 68f 56f
6:30 2 5 mph 1017.9mb 68f 57f
6:24 3 6 mph 1017.8mb 68f 57f
6:18 3 6 mph 1017.8mb 68f 57f
6:12 3 6 mph 1017.8mb 68f 57f
6:06 3 5 mph 1017.8mb 68f 57f
6:00 3 6 mph 1017.8mb 68f 57f
5:54 3 6 mph 1017.8mb 68f 57f
5:48 3 5 mph 1017.7mb 68f 56f
5:42 2 5 mph 1017.7mb 68f 56f
5:36 2 5 mph 1017.6mb 68f 56f
5:30 3 6 mph 1017.7mb 68f 57f
5:24 5 7 mph 1017.6mb 68f 57f
5:18 6 7 mph 1017.6mb 68f 57f
5:12 5 6 mph 1017.6mb 68f 57f
5:06 3 6 mph 1017.6mb 68f 57f
5:00 6 7 mph 1017.6mb 68f 57f
4:54 5 6 mph 1017.5mb 68f 57f
4:48 6 7 mph 1017.5mb 68f 57f
4:42 5 6 mph 1017.5mb 69f 57f
4:36 5 6 mph 1017.5mb 68f 57f
4:30 3 6 mph 1017.5mb 68f 57f
4:24 3 6 mph 1017.5mb 68f 57f
4:18 5 6 mph 1017.5mb 68f 58f
4:12 2 6 mph 1017.4mb 68f 58f
4:06 3 5 mph 1017.4mb 68f 58f
4:00 2 5 mph 1017.4mb 68f 58f
3:54 3 5 mph 1017.3mb 68f 58f
3:48 2 5 mph 1017.4mb 68f 58f
3:42 3 5 mph 1017.3mb 68f 58f
3:36 2 5 mph 1017.3mb 68f 58f
3:30 2 3 mph 1017.3mb 68f 58f
3:24 3 5 mph 1017.3mb 68f 58f
3:18 1 5 mph 1017.3mb 68f 58f
3:12 1 6 mph 1017.3mb 68f 58f
3:06 1 5 mph 1017.3mb 69f 58f
3:00 3 7 mph 1017.2mb 68f 59f
2:54 6 9 mph 1017.2mb 68f 59f
2:48 8 10 mph 1017.2mb 68f 59f
2:42 8 9 mph 1017.2mb 68f 59f
2:36 7 11 mph 1017.2mb 68f 59f
2:30 7 10 mph 1017.2mb 68f 59f
2:24 9 11 mph 1017.2mb 68f 59f
2:18 8 13 mph 1017.2mb 68f 59f
2:12 9 11 mph 1017.2mb 68f 60f
2:06 7 10 mph 1017.2mb 68f 60f
2:00 8 9 mph 1017.2mb 68f 60f
1:54 3 7 mph 1017.2mb 68f 59f
1:48 3 5 mph 1017.2mb 68f 59f
1:42 1 3 mph 1017.2mb 68f 59f
1:36 2 6 mph 1017.2mb 68f 60f
1:30 3 7 mph 1017.2mb 68f 59f
1:24 5 7 mph 1017.2mb 68f 60f
1:18 6 8 mph 1017.2mb 68f 60f
1:12 7 9 mph 1017.2mb 68f 60f
1:06 3 7 mph 1017.2mb 68f 60f
1:00 6 8 mph 1017.2mb 68f 60f
12:54 5 7 mph 1017.1mb 68f 60f
12:48 5 9 mph 1017.1mb 68f 60f
12:42 7 10 mph 1017.1mb 68f 60f
12:36 6 8 mph 1017.1mb 68f 60f
12:30 7 8 mph 1017.1mb 68f 60f
12:24 7 9 mph 1017.1mb 68f 60f
12:18 6 9 mph 1017.1mb 68f 60f
12:12 5 7 mph 1017mb 68f 60f
12:06 6 9 mph 1017mb 68f 60f
12:00 7 9 mph 1017mb 68f 61f
dim. 07/20 11:54 5 7 mph 1017mb 68f 61f
11:48 6 7 mph 1016.9mb 68f 61f
11:42 5 7 mph 1016.9mb 68f 61f
11:36 5 7 mph 1017mb 68f 61f
11:30 5 7 mph 1016.9mb 69f 61f
11:24 6 7 mph 1016.9mb 69f 61f
11:18 3 8 mph 1016.9mb 69f 61f
11:12 6 7 mph 1016.9mb 69f 61f
11:06 5 7 mph 1017mb 69f 61f
11:00 2 6 mph 1017mb 69f 61f
10:54 5 9 mph 1017mb 69f 61f
10:48 3 8 mph 1017mb 69f 61f
10:42 2 6 mph 1017.1mb 69f 61f
10:36 3 6 mph 1017mb 69f 62f
10:30 1 3 mph 1017.1mb 69f 62f
10:24 2 7 mph 1017.1mb 68f 62f
10:18 3 5 mph 1017.1mb 68f 61f
10:12 3 7 mph 1017.2mb 68f 61f
10:06 5 6 mph 1017.2mb 68f 61f
10:00 5 9 mph 1017.2mb 68f 61f
9:54 6 8 mph 1017.2mb 68f 62f
9:48 6 7 mph 1017.1mb 67f 62f
9:42 6 8 mph 1017mb 68f 61f
9:36 6 8 mph 1017mb 69f 61f
9:30 7 9 mph 1016.9mb 69f 61f
9:24 6 10 mph 1016.9mb 69f 62f
9:18 6 9 mph 1016.8mb 69f 62f
9:12 5 8 mph 1016.7mb 69f 62f
9:06 2 7 mph 1016.7mb 69f 62f
9:00 3 8 mph 1016.7mb 69f 62f
8:54 3 8 mph 1016.7mb 70f 62f
8:48 2 10 mph 1016.8mb 70f 62f
8:42 6 10 mph 1016.7mb 70f 62f
8:36 6 13 mph 1016.7mb 70f 62f
8:30 3 10 mph 1016.7mb 70f 62f